STARLINK-2712 (48674 NORAD) Tracking and Keplerian Element Data

This shows tracking and keplerian element data for the satellite.

Feedback or suggestion? Click here.




ElementValue
Catalog48674
NameSTARLINK-2712
Epoch Orbit181
Epoch Day170.58334491
Epoch Year2021
RAAN306.2626
Inclination53.0477
Eccentricity0.0001345
Argument of Perigee55.6122
Mean Anonmoly68.088
Mean Motion15.73216851
Decay Rate-8.261E-05
L11 48674U 21044AN 21170.58334491 -.00008261 00000-0 -54443-4 0 9991
L22 48674 53.0477 306.2626 0001345 55.6122 68.0880 15.73216851 1815

Live tracking and technical data element details for STARLINK-2712 (NORAD 48674). STARLINK-2712 can be tracked NOW for your location showing map with azimuth and elevation plus other details from your city location.

Track the satellite on the map from your city or location and see movement details for azimuth, elevation, latitude, longitude, range, height, and movement on the map or in text.







IsCatalogInMostPopularTable: catalog: 48674, numindb: 4
Update: records affected: 1



GetName: 48674 STARLINK-2712

Hit Count: updated at: Mon, 21 Jun 2021 04:39:37 GMT